Weather History for Sonora, TX

Change the Weather History Date:

Friday, December 6, 2013

  Actual Average (KOZA) Record (KOZA)
Temperature  
Mean Temperature 29 °F -  
Max Temperature 32 °F 61 °F 77 °F (2012)
Min Temperature 26 °F 33 °F 25 °F (2011)
Degree Days  
Heating Degree Days 36    
Moisture  
Dew Point 26 °F    
Average Humidity 90    
Maximum Humidity 100    
Minimum Humidity 80    
Precipitation  
Precipitation 0.00 in - - ()
Sea Level Pressure  
Sea Level Pressure 30.30 in    
Wind  
Wind Speed 0 mph (North)    
Max Wind Speed 0 mph    
Max Gust Speed -    
Visibility 10 miles    
Events Snow    
Averages and records for this station are not official NWS values.
T = Trace of Precipitation, MM = Missing Value Source: NWS Daily Summary

Daily Weather History Graph

Daily Weather History Graph

Search for Another Location

Airport:

Trip Planner

Search our weather history database for the weather conditions in past years. The results will help you decide how hot, cold, wet, or windy it might be!

Date:

Astronomy

Dec. 06, 2013 Rise Set
Actual Time 7:26 AM CST 5:41 PM CST
Civil Twilight 6:59 AM CST 6:07 PM CST
Nautical Twilight 6:30 AM CST 6:37 PM CST
Astronomical Twilight 6:00 AM CST 7:06 PM CST
Moon 10:42 AM CST (12/6) 10:04 PM CST (12/6)
Length of Visible Light 11h 07m
Length of Day
10h 15m
Waxing Crescent, 19% of the Moon is Illuminated
Dec 6
Waxing Crescent
Dec 9
First Quarter
Dec 17
Full
Dec 25
Last Quarter
Jan 1
New

Hourly Weather History & Observations

Time (CST) Temp. Dew Point Humidity Pressure Visibility Wind Dir Wind Speed Gust Speed Precip Events Conditions
12:15 AM 30.2 °F 28.4 °F 93% 30.13 in 2.5 mi Calm Calm - N/A Snow Light Snow
12:35 AM 30.2 °F 28.4 °F 93% 30.13 in 7.0 mi Calm Calm - N/A   Mostly Cloudy
12:55 AM 28.4 °F 28.4 °F 100% 30.17 in 8.0 mi Calm Calm - N/A   Overcast
1:15 AM 28.4 °F 26.6 °F 93% 30.12 in 10.0 mi Calm Calm - N/A   Overcast
1:35 AM 28.4 °F 26.6 °F 93% 30.14 in 10.0 mi Calm Calm - N/A   Overcast
1:55 AM 28.4 °F 26.6 °F 93% 30.14 in 10.0 mi Calm Calm - N/A   Overcast
2:15 AM 28.4 °F 26.6 °F 93% 30.15 in 10.0 mi Calm Calm - N/A   Overcast
2:35 AM 28.4 °F 26.6 °F 93% 30.14 in 10.0 mi Calm Calm - N/A   Overcast
2:55 AM 28.4 °F 26.6 °F 93% 30.15 in 10.0 mi Calm Calm - N/A   Overcast
3:15 AM 30.2 °F 28.4 °F 93% 30.15 in 5.0 mi Calm Calm - N/A Snow Light Snow
3:35 AM 28.4 °F 28.4 °F 100% 30.16 in 10.0 mi Calm Calm - N/A   Overcast
3:55 AM 30.2 °F 28.4 °F 93% 30.15 in 10.0 mi Calm Calm - N/A   Overcast
4:15 AM 30.2 °F 28.4 °F 93% 30.13 in 10.0 mi Calm Calm - N/A Snow Light Snow
4:35 AM 30.2 °F 28.4 °F 93% 30.17 in 9.0 mi Calm Calm - N/A Snow Light Snow
4:55 AM 30.2 °F 28.4 °F 93% 30.17 in 7.0 mi Calm Calm - N/A Snow Light Snow
5:15 AM 28.4 °F 26.6 °F 93% 30.19 in 10.0 mi Calm Calm - N/A Snow Light Snow
5:35 AM 28.4 °F 26.6 °F 93% 30.22 in 10.0 mi Calm Calm - N/A   Overcast
5:55 AM 28.4 °F 26.6 °F 93% 30.22 in 10.0 mi Calm Calm - N/A Snow Light Snow
6:15 AM 28.4 °F 24.8 °F 86% 30.22 in 10.0 mi Calm Calm - N/A   Overcast
6:35 AM 28.4 °F 24.8 °F 86% 30.23 in 10.0 mi Calm Calm - N/A   Overcast
6:55 AM 28.4 °F 24.8 °F 86% 30.25 in 10.0 mi Calm Calm - N/A   Overcast
7:15 AM 28.4 °F 26.6 °F 93% 30.24 in 10.0 mi Calm Calm - N/A   Overcast
7:35 AM 26.6 °F 24.8 °F 93% 30.25 in 10.0 mi Calm Calm - N/A   Overcast
7:55 AM 28.4 °F 26.6 °F 93% 30.26 in 10.0 mi Calm Calm - N/A   Overcast
8:15 AM 26.6 °F 26.6 °F 100% 30.28 in 10.0 mi Calm Calm - N/A   Overcast
8:35 AM 26.6 °F 24.8 °F 93% 30.28 in 10.0 mi Calm Calm - N/A   Overcast
8:55 AM 26.6 °F 24.8 °F 93% 30.30 in 10.0 mi Calm Calm - N/A   Overcast
9:15 AM 26.6 °F 24.8 °F 93% 30.30 in 10.0 mi Calm Calm - N/A   Overcast
9:35 AM 26.6 °F 24.8 °F 93% 30.32 in 10.0 mi Calm Calm - N/A   Overcast
9:55 AM 26.6 °F 24.8 °F 93% 30.33 in 10.0 mi Calm Calm - N/A   Overcast
10:15 AM 26.6 °F 24.8 °F 93% 30.33 in 10.0 mi Calm Calm - N/A   Overcast
10:35 AM 26.6 °F 24.8 °F 93% 30.34 in 10.0 mi Calm Calm - N/A   Overcast
10:55 AM 28.4 °F 24.8 °F 86% 30.34 in 10.0 mi Calm Calm - N/A   Overcast
11:15 AM 28.4 °F 24.8 °F 86% 30.34 in 10.0 mi Calm Calm - N/A   Overcast
11:35 AM 28.4 °F 26.6 °F 93% 30.35 in 10.0 mi Calm Calm - N/A   Overcast
11:55 AM 28.4 °F 26.6 °F 93% 30.35 in 10.0 mi Calm Calm - N/A   Overcast
12:15 PM 28.4 °F 26.6 °F 93% 30.34 in 10.0 mi Calm Calm - N/A   Overcast
12:35 PM 28.4 °F 26.6 °F 93% 30.34 in 10.0 mi Calm Calm - N/A   Overcast
12:55 PM 28.4 °F 26.6 °F 93% 30.34 in 10.0 mi Calm Calm - N/A   Overcast
1:15 PM 28.4 °F 26.6 °F 93% 30.33 in 10.0 mi Calm Calm - N/A   Overcast
1:35 PM 28.4 °F 26.6 °F 93% 30.32 in 10.0 mi Calm Calm - N/A   Overcast
1:55 PM 30.2 °F 26.6 °F 86% 30.31 in 10.0 mi Calm Calm - N/A   Overcast
2:15 PM 30.2 °F 28.4 °F 93% 30.31 in 10.0 mi Calm Calm - N/A   Overcast
2:35 PM 30.2 °F 26.6 °F 86% 30.32 in 10.0 mi Calm Calm - N/A   Overcast
2:55 PM 30.2 °F 28.4 °F 93% 30.32 in 10.0 mi Calm Calm - N/A   Overcast
3:15 PM 30.2 °F 28.4 °F 93% 30.32 in 10.0 mi Calm Calm - N/A   Overcast
3:35 PM 30.2 °F 28.4 °F 93% 30.32 in 10.0 mi Calm Calm - N/A   Overcast
3:55 PM 30.2 °F 28.4 °F 93% 30.32 in 10.0 mi Calm Calm - N/A   Scattered Clouds
4:15 PM 32.0 °F 28.4 °F 87% 30.33 in 10.0 mi Calm Calm - N/A   Mostly Cloudy
4:35 PM 30.2 °F 28.4 °F 93% 30.34 in 10.0 mi Calm Calm - N/A   Overcast
5:15 PM 30.2 °F 26.6 °F 86% 30.35 in 10.0 mi Calm Calm - N/A   Clear
5:35 PM 30.2 °F 26.6 °F 86% 30.36 in 10.0 mi Calm Calm - N/A   Clear
5:55 PM 30.2 °F 26.6 °F 86% 30.36 in 10.0 mi Calm Calm - N/A   Clear
6:15 PM 30.2 °F 26.6 °F 86% 30.37 in 10.0 mi Calm Calm - N/A   Clear
6:35 PM 30.2 °F 26.6 °F 86% 30.38 in 10.0 mi Calm Calm - N/A   Clear
6:55 PM 28.4 °F 26.6 °F 93% 30.39 in 10.0 mi Calm Calm - N/A   Clear
7:15 PM 28.4 °F 24.8 °F 86% 30.40 in 10.0 mi Calm Calm - N/A   Clear
7:35 PM 28.4 °F 24.8 °F 86% 30.41 in 10.0 mi Calm Calm - N/A   Clear
7:55 PM 28.4 °F 24.8 °F 86% 30.41 in 10.0 mi Calm Calm - N/A   Clear
8:15 PM 28.4 °F 23.0 °F 80% 30.42 in 10.0 mi Calm Calm - N/A   Clear
8:35 PM 28.4 °F 23.0 °F 80% 30.44 in 10.0 mi Calm Calm - N/A   Clear
8:55 PM 28.4 °F 23.0 °F 80% 30.45 in 10.0 mi Calm Calm - N/A   Scattered Clouds
9:15 PM 26.6 °F 23.0 °F 86% 30.45 in 10.0 mi Calm Calm - N/A   Mostly Cloudy
9:35 PM 26.6 °F 23.0 °F 86% 30.46 in 10.0 mi Calm Calm - N/A   Partly Cloudy
9:55 PM 26.6 °F 23.0 °F 86% 30.45 in 10.0 mi Calm Calm - N/A   Clear
10:15 PM 26.6 °F 23.0 °F 86% 30.44 in 10.0 mi Calm Calm - N/A   Clear
10:35 PM 26.6 °F 23.0 °F 86% 30.45 in 10.0 mi Calm Calm - N/A   Clear
10:55 PM 26.6 °F 23.0 °F 86% 30.45 in 10.0 mi Calm Calm - N/A   Clear
11:15 PM 26.6 °F 21.2 °F 80% 30.44 in 10.0 mi Calm Calm - N/A   Clear
11:35 PM 26.6 °F 21.2 °F 80% 30.43 in 10.0 mi Calm Calm - N/A   Clear
11:55 PM 26.6 °F 21.2 °F 80% 30.44 in 10.0 mi Calm Calm - N/A   Clear